Regional Weather Roundup
Issued by NWS Sioux Falls, SD

Home | Current Version | Previous Version | Text Only | Print | Product List | Glossary Off
Versions: 1 2 3 4 5 6 7 8 9 10 11 12 13 14 15 16 17 18 19 20 21 22 23 24 25 26 27 28 29 30 31 32 33 34 35 36 37 38 39 40 41 42 43 44 45 46 47 48 49 50

000
ASUS43 KFSD 181002
RWRFSD

WEATHER ROUNDUP FOR SE SOUTH DAKOTA/SW MINNESOTA/NW IOWA
NATIONAL WEATHER SERVICE SIOUX FALLS SD
500 AM CDT SAT APR 18 2015

NOTE: "FAIR" INDICATES FEW OR NO CLOUDS BELOW 12,000 FEET WITH NO
SIGNIFICANT WEATHER AND OR OBSTRUCTIONS TO VISIBILITY.


SDZ038>040-050-052>070-181100-
SOUTHEAST SOUTH DAKOTA

CITY           SKY/WX    TMP DP  RH WIND       PRES   REMARKS
BROOKINGS      CLOUDY    46  30  53 NE5       30.04S
CHAMBERLAIN    NOT AVBL
HURON          CLOUDY    51  29  42 NE7       30.00F
MADISON        FAIR      45  23  42 NE6       30.02F
MITCHELL       CLOUDY    55  27  34 E8        30.00S
SIOUX FALLS    MOCLDY    52  27  38 NE6       30.01S
WINNER         LGT RAIN  52  48  86 NE8       30.00F
YANKTON        CLOUDY    55  34  44 NE6       29.97F
$$

MNZ071-072-080-081-089-090-097-098-181100-
SOUTHWEST MINNESOTA

CITY           SKY/WX    TMP DP  RH WIND       PRES   REMARKS
FAIRMONT       MOCLDY    50  25  37 CALM      30.03S
JACKSON        MOCLDY    50  28  43 E8        30.04S
LUVERNE        CLOUDY    54  28  37 NE3       30.02F
MARSHALL       PTCLDY    41  19  42 N7        30.05S
MONTEVIDEO     PTCLDY    43  25  49 E9        30.07S
PIPESTONE      MOCLDY    55  18  22 E7        30.03S
REDWOOD FALLS  PTCLDY    43  28  55 CALM      30.05S
TRACY          MOCLDY    51  28  40 CALM      30.04F
WORTHINGTON    MOCLDY    48  25  40 NE7       30.04F
$$

IAZ001>003-012>014-020>022-031-032-NEZ013-014-SDZ071-181100-
NORTHWEST IOWA

CITY           SKY/WX    TMP DP  RH WIND       PRES   REMARKS
DENISON        CLOUDY    57  50  77 NE7       29.96F
ESTHERVILLE    MOCLDY    46  35  65 NE9       30.03S
SIOUX CITY     CLOUDY    59  45  59 S7        29.98R
SPENCER        MOCLDY    53  38  56 NE10      30.02F
$$

ABBREVIATIONS USED IN REMARKS
   TC - TEMPERATURE IN CELSIUS
  WCI - WIND CHILL INDEX
   HX - HEAT INDEX
  VSB - VISIBILITY




USA.gov is the U.S. government's official web portal to all federal, state and local government web resources and services.